| time (UTC) | temp C | wind direction | speed KPH | gust KPH | rain 1hr cm | rain 24hr cm | rain mn cm | humidity % | barometer mb |
| 20260902163021 | 22 | 103 | 4.8 | 14.5 | 0.00 | 1.22 | 0.00 | 67 | 1021.7 |
| 20260902162521 | 22 | 95 | 4.8 | 12.9 | 0.00 | 1.22 | 0.00 | 67 | 1021.7 |
| 20260902162021 | 22 | 101 | 6.4 | 16.1 | 0.00 | 1.22 | 0.00 | 68 | 1021.8 |
| 20260902161520 | 22 | 136 | 4.8 | 11.3 | 0.00 | 1.22 | 0.00 | 69 | 1021.7 |
| 20260902161040 | 22 | 150 | 6.4 | 14.5 | 0.00 | 1.22 | 0.00 | 68 | 1021.8 |
| 20260902160605 | 22 | 143 | 8.0 | 14.5 | 0.00 | 1.22 | 0.00 | 68 | 1021.8 |
| 20260902160020 | 21 | 137 | 8.0 | 14.5 | 0.00 | 1.22 | 0.00 | 70 | 1021.9 |
| 20260902155519 | 21 | 135 | 4.8 | 11.3 | 0.00 | 1.22 | 0.00 | 73 | 1021.9 |
| 20260902155019 | 21 | 104 | 6.4 | 12.9 | 0.00 | 1.22 | 0.00 | 73 | 1022.0 |
| 20260902154521 | 21 | 86 | 6.4 | 14.5 | 0.00 | 1.22 | 0.00 | 72 | 1022.1 |
| 20260902154021 | 21 | 102 | 4.8 | 12.9 | 0.00 | 1.22 | 0.00 | 72 | 1022.2 |
| 20260902153541 | 21 | 110 | 4.8 | 11.3 | 0.00 | 1.22 | 0.00 | 73 | 1022.3 |
| 20260902153020 | 21 | 110 | 6.4 | 12.9 | 0.00 | 1.22 | 0.00 | 74 | 1022.4 |
| 20260902152520 | 21 | 124 | 6.4 | 11.3 | 0.00 | 1.22 | 0.00 | 74 | 1022.3 |
| 20260902152020 | 21 | 107 | 6.4 | 12.9 | 0.00 | 1.22 | 0.00 | 76 | 1022.3 |
| 20260902151519 | 21 | 136 | 4.8 | 12.9 | 0.00 | 1.22 | 0.00 | 78 | 1022.4 |
| 20260902151019 | 21 | 82 | 4.8 | 12.9 | 0.00 | 1.22 | 0.00 | 77 | 1022.3 |
| 20260902150521 | 21 | 81 | 4.8 | 11.3 | 0.00 | 1.22 | 0.00 | 78 | 1022.4 |
| 20260902150021 | 21 | 68 | 4.8 | 12.9 | 0.00 | 1.22 | 0.00 | 78 | 1022.2 |
| 20260902145521 | 21 | 118 | 4.8 | 12.9 | 0.00 | 1.22 | 0.00 | 78 | 1022.3 |
| 20260902145046 | 21 | 97 | 4.8 | 12.9 | 0.00 | 1.22 | 0.00 | 79 | 1022.1 |
| 20260902144520 | 21 | 114 | 4.8 | 14.5 | 0.00 | 1.22 | 0.00 | 80 | 1022.1 |
| 20260902144020 | 20 | 119 | 4.8 | 16.1 | 0.00 | 1.22 | 0.00 | 81 | 1022.0 |
| 20260902143519 | 20 | 99 | 4.8 | 16.1 | 0.00 | 1.22 | 0.00 | 82 | 1022.0 |
| 20260902143019 | 20 | 92 | 3.2 | 14.5 | 0.00 | 1.22 | 0.00 | 82 | 1022.0 |
| 20260902142521 | 20 | 129 | 6.4 | 14.5 | 0.00 | 1.22 | 0.00 | 82 | 1022.1 |
| 20260902142021 | 20 | 115 | 6.4 | 16.1 | 0.00 | 1.22 | 0.00 | 82 | 1021.7 |
| 20260902141519 | 20 | 118 | 6.4 | 16.1 | 0.00 | 1.22 | 0.00 | 83 | 1021.7 |
| 20260902141020 | 20 | 105 | 8.0 | 16.1 | 0.00 | 1.22 | 0.00 | 85 | 1021.6 |
| 20260902140520 | 20 | 102 | 6.4 | 17.7 | 0.00 | 1.22 | 0.00 | 85 | 1021.6 |
| 20260902140020 | 20 | 111 | 6.4 | 17.7 | 0.00 | 1.22 | 0.00 | 87 | 1021.5 |
| 20260902135520 | 20 | 117 | 4.8 | 16.1 | 0.00 | 1.22 | 0.00 | 88 | 1021.5 |
| 20260902135020 | 20 | 88 | 4.8 | 20.9 | 0.00 | 1.22 | 0.00 | 90 | 1021.4 |
| 20260902134519 | 19 | 98 | 4.8 | 14.5 | 0.00 | 1.22 | 0.00 | 92 | 1021.4 |
| 20260902134026 | 19 | 101 | 4.8 | 11.3 | 0.00 | 1.22 | 0.00 | 92 | 1021.3 |
| 20260902133541 | 19 | 107 | 6.4 | 11.3 | 0.00 | 1.22 | 0.00 | 93 | 1021.3 |
| 20260902133021 | 19 | 81 | 4.8 | 11.3 | 0.00 | 1.24 | 0.00 | 96 | 1021.3 |
| 20260902132540 | 18 | 93 | 1.6 | 4.8 | 0.00 | 1.27 | 0.00 | 98 | 1021.3 |
| 20260902132041 | 18 | 79 | 1.6 | 3.2 | 0.00 | 1.27 | 0.00 | 98 | 1021.3 |
| 20260902131540 | 18 | 104 | 1.6 | 3.2 | 0.00 | 1.30 | 0.00 | 99 | 1021.5 |
| 20260902131020 | 18 | 88 | 1.6 | 4.8 | 0.00 | 1.32 | 0.00 | 99 | 1021.5 |
| 20260902130520 | 18 | 0.0 | 0.0 | 0.00 | 1.32 | 0.00 | 99 | 1021.6 | |
| 20260902130019 | 17 | 340 | 0.0 | 3.2 | 0.00 | 1.35 | 0.00 | 99 | 1021.6 |
| 20260902125521 | 17 | 289 | 0.0 | 3.2 | 0.00 | 1.37 | 0.00 | 99 | 1021.6 |
| 20260902125021 | 17 | 186 | 0.0 | 1.6 | 0.00 | 1.40 | 0.00 | 99 | 1021.6 |
| 20260902124520 | 17 | 0.0 | 0.0 | 0.00 | 1.42 | 0.00 | 99 | 1021.8 | |
| 20260902124020 | 17 | 186 | 0.0 | 1.6 | 0.00 | 1.45 | 0.00 | 99 | 1021.8 |
| 20260902123520 | 17 | 187 | 0.0 | 1.6 | 0.00 | 1.50 | 0.00 | 99 | 1021.8 |
| 20260902123022 | 17 | 0.0 | 0.0 | 0.00 | 1.52 | 0.00 | 99 | 1021.7 | |
| 20260902122540 | 17 | 0.0 | 0.0 | 0.00 | 1.55 | 0.00 | 99 | 1021.7 | |
| 20260902122020 | 17 | 0.0 | 0.0 | 0.00 | 1.55 | 0.00 | 99 | 1021.9 | |
| 20260902121519 | 17 | 0.0 | 0.0 | 0.00 | 1.55 | 0.00 | 99 | 1021.9 | |
| 20260902121039 | 17 | 0.0 | 0.0 | 0.00 | 1.55 | 0.00 | 99 | 1021.9 | |
| 20260902120521 | 17 | 0.0 | 0.0 | 0.00 | 1.55 | 0.00 | 99 | 1022.0 | |
| 20260902120041 | 16 | 0.0 | 0.0 | 0.00 | 1.55 | 0.00 | 99 | 1021.9 | |
| 20260902115519 | 16 | 0.0 | 0.0 | 0.00 | 1.55 | 0.00 | 99 | 1021.9 | |
| 20260902115021 | 16 | 0.0 | 0.0 | 0.00 | 1.55 | 0.00 | 99 | 1022.0 | |
| 20260902114521 | 16 | 186 | 0.0 | 1.6 | 0.00 | 1.55 | 0.00 | 99 | 1022.0 |
| 20260902114020 | 16 | 0.0 | 0.0 | 0.00 | 1.55 | 0.00 | 99 | 1022.0 | |
| 20260902113522 | 16 | 0.0 | 0.0 | 0.00 | 1.55 | 0.00 | 99 | 1022.0 | |
| 20260902113020 | 16 | 0.0 | 0.0 | 0.00 | 1.55 | 0.00 | 99 | 1021.9 | |
| 20260902112540 | 16 | 0.0 | 0.0 | 0.00 | 1.55 | 0.00 | 99 | 1021.8 | |
| 20260902112019 | 16 | 0.0 | 0.0 | 0.00 | 1.55 | 0.00 | 99 | 1021.9 | |
| 20260902111539 | 16 | 0.0 | 0.0 | 0.00 | 1.55 | 0.00 | 99 | 1021.8 | |
| 20260902111019 | 16 | 0.0 | 0.0 | 0.00 | 1.55 | 0.00 | 99 | 1021.7 | |
| 20260902110519 | 16 | 0.0 | 0.0 | 0.00 | 1.55 | 0.00 | 99 | 1021.7 | |
| 20260902110039 | 16 | 0.0 | 0.0 | 0.00 | 1.55 | 0.00 | 99 | 1021.4 | |
| 20260902105539 | 16 | 0.0 | 0.0 | 0.00 | 1.55 | 0.00 | 99 | 1021.4 | |
| 20260902105020 | 16 | 0.0 | 0.0 | 0.00 | 1.55 | 0.00 | 99 | 1021.3 | |
| 20260902104520 | 16 | 0.0 | 0.0 | 0.00 | 1.55 | 0.00 | 99 | 1021.3 | |
| 20260902104020 | 16 | 0.0 | 0.0 | 0.00 | 1.55 | 0.00 | 99 | 1021.2 | |
| 20260902103519 | 16 | 0.0 | 0.0 | 0.00 | 1.55 | 0.00 | 99 | 1021.3 | |
| 20260902103019 | 16 | 0.0 | 0.0 | 0.00 | 1.55 | 0.00 | 99 | 1021.3 | |
| 20260902102519 | 16 | 0.0 | 0.0 | 0.00 | 1.55 | 0.00 | 99 | 1021.2 | |
| 20260902102019 | 16 | 0.0 | 0.0 | 0.00 | 1.55 | 0.00 | 99 | 1021.1 | |
| 20260902101518 | 16 | 0.0 | 0.0 | 0.00 | 1.55 | 0.00 | 99 | 1021.1 | |
| 20260902101020 | 16 | 0.0 | 0.0 | 0.00 | 1.55 | 0.00 | 99 | 1021.0 | |
| 20260902100601 | 15 | 0.0 | 0.0 | 0.00 | 1.55 | 0.00 | 99 | 1020.9 | |
| 20260902100019 | 15 | 0.0 | 0.0 | 0.00 | 1.55 | 0.00 | 99 | 1020.9 | |
| 20260902095519 | 16 | 0.0 | 0.0 | 0.00 | 1.55 | 0.00 | 99 | 1020.9 | |
| 20260902095019 | 15 | 0.0 | 0.0 | 0.00 | 1.55 | 0.00 | 99 | 1020.9 | |
| 20260902094524 | 15 | 0.0 | 0.0 | 0.00 | 1.55 | 0.00 | 99 | 1020.8 | |
| 20260902094021 | 15 | 0.0 | 0.0 | 0.00 | 1.55 | 0.00 | 99 | 1020.6 | |
| 20260902093601 | 15 | 0.0 | 0.0 | 0.00 | 1.55 | 0.00 | 99 | 1020.7 | |
| 20260902093021 | 15 | 0.0 | 0.0 | 0.00 | 1.55 | 0.00 | 99 | 1020.6 | |
| 20260902092520 | 15 | 0.0 | 0.0 | 0.00 | 1.55 | 0.00 | 99 | 1020.5 | |
| 20260902092020 | 15 | 0.0 | 0.0 | 0.00 | 1.55 | 0.00 | 99 | 1020.5 | |
| 20260902091519 | 15 | 0.0 | 0.0 | 0.00 | 1.55 | 0.00 | 99 | 1020.7 | |
| 20260902091019 | 15 | 0.0 | 0.0 | 0.00 | 1.55 | 0.00 | 99 | 1020.8 | |
| 20260902090519 | 15 | 0.0 | 0.0 | 0.00 | 1.55 | 0.00 | 99 | 1020.5 | |
| 20260902090021 | 15 | 0.0 | 0.0 | 0.00 | 1.55 | 0.00 | 99 | 1020.5 | |
| 20260902085521 | 16 | 0.0 | 0.0 | 0.00 | 1.55 | 0.00 | 99 | 1020.6 | |
| 20260902085020 | 16 | 0.0 | 0.0 | 0.00 | 1.55 | 0.00 | 99 | 1020.5 | |
| 20260902084541 | 16 | 0.0 | 0.0 | 0.00 | 1.55 | 0.00 | 99 | 1020.4 | |
| 20260902084020 | 16 | 0.0 | 0.0 | 0.00 | 1.55 | 0.00 | 99 | 1020.4 | |
| 20260902083520 | 16 | 186 | 0.0 | 1.6 | 0.00 | 1.55 | 0.00 | 99 | 1020.4 |
| 20260902083019 | 16 | 0.0 | 0.0 | 0.00 | 1.55 | 0.00 | 99 | 1020.3 | |
| 20260902082519 | 16 | 0.0 | 0.0 | 0.00 | 1.55 | 0.00 | 99 | 1020.4 | |
| 20260902082021 | 16 | 0.0 | 0.0 | 0.00 | 1.55 | 0.00 | 99 | 1020.5 | |
| 20260902081519 | 16 | 0.0 | 0.0 | 0.00 | 1.55 | 0.00 | 99 | 1020.4 | |
| 20260902081020 | 16 | 0.0 | 0.0 | 0.00 | 1.55 | 0.00 | 99 | 1020.4 | |
| 20260902080520 | 16 | 0.0 | 0.0 | 0.00 | 1.55 | 0.00 | 99 | 1020.4 | |
| 20260902080040 | 16 | 0.0 | 0.0 | 0.00 | 1.55 | 0.00 | 99 | 1020.4 | |
| 20260902075520 | 16 | 0.0 | 0.0 | 0.00 | 1.55 | 0.00 | 99 | 1020.4 | |
| 20260902075019 | 16 | 0.0 | 0.0 | 0.00 | 1.55 | 0.00 | 99 | 1020.4 | |
| 20260902074519 | 16 | 0.0 | 0.0 | 0.00 | 1.55 | 0.00 | 99 | 1020.6 | |
| 20260902074019 | 16 | 0.0 | 0.0 | 0.00 | 1.55 | 0.00 | 99 | 1020.7 | |
| 20260902073521 | 16 | 0.0 | 0.0 | 0.00 | 1.55 | 0.00 | 99 | 1020.7 | |
| 20260902073040 | 16 | 0.0 | 0.0 | 0.00 | 1.55 | 0.00 | 99 | 1020.6 | |
| 20260902072520 | 16 | 0.0 | 0.0 | 0.00 | 1.55 | 0.00 | 99 | 1020.5 | |
| 20260902072020 | 16 | 0.0 | 0.0 | 0.00 | 1.55 | 0.00 | 99 | 1020.5 | |
| 20260902071520 | 16 | 0.0 | 0.0 | 0.00 | 1.55 | 0.00 | 99 | 1020.4 | |
| 20260902071019 | 16 | 0.0 | 0.0 | 0.00 | 1.55 | 0.00 | 99 | 1020.3 | |
| 20260902070519 | 16 | 0.0 | 0.0 | 0.00 | 1.55 | 0.00 | 99 | 1020.3 | |
| 20260902070041 | 16 | 0.0 | 0.0 | 0.00 | 1.55 | 0.00 | 99 | 1020.2 | |
| 20260902065520 | 16 | 0.0 | 0.0 | 0.00 | 1.55 | 0.00 | 99 | 1020.2 | |
| 20260902065019 | 16 | 0.0 | 0.0 | 0.00 | 1.55 | 0.00 | 99 | 1020.3 | |
| 20260902064524 | 16 | 0.0 | 0.0 | 0.00 | 1.55 | 0.00 | 99 | 1020.3 | |
| 20260902064021 | 16 | 0.0 | 0.0 | 0.00 | 1.55 | 0.00 | 99 | 1020.3 | |
| 20260902063521 | 16 | 0.0 | 0.0 | 0.00 | 1.55 | 0.00 | 99 | 1020.4 | |
| 20260902063023 | 16 | 0.0 | 0.0 | 0.00 | 1.55 | 0.00 | 99 | 1020.4 | |
| 20260902062521 | 16 | 0.0 | 0.0 | 0.00 | 1.55 | 0.00 | 99 | 1020.4 | |
| 20260902062020 | 16 | 0.0 | 0.0 | 0.00 | 1.55 | 0.00 | 99 | 1020.3 | |
| 20260902061520 | 16 | 0.0 | 0.0 | 0.00 | 1.55 | 0.00 | 99 | 1020.2 | |
| 20260902061020 | 16 | 0.0 | 0.0 | 0.00 | 1.55 | 0.00 | 99 | 1020.3 | |
| 20260902060520 | 16 | 0.0 | 0.0 | 0.00 | 1.55 | 0.00 | 99 | 1020.4 | |
| 20260902060019 | 16 | 0.0 | 0.0 | 0.00 | 1.55 | 0.00 | 99 | 1020.5 | |
| 20260902055519 | 16 | 0.0 | 0.0 | 0.00 | 1.55 | 0.00 | 99 | 1020.4 | |
| 20260902055019 | 16 | 0.0 | 0.0 | 0.00 | 1.55 | 0.00 | 99 | 1020.2 | |
| 20260902054519 | 16 | 0.0 | 0.0 | 0.00 | 1.55 | 0.00 | 99 | 1020.2 | |
| 20260902054019 | 16 | 0.0 | 0.0 | 0.00 | 1.55 | 0.00 | 99 | 1020.3 | |
| 20260902053519 | 16 | 0.0 | 0.0 | 0.00 | 1.55 | 0.00 | 99 | 1020.3 | |
| 20260902053040 | 16 | 0.0 | 0.0 | 0.00 | 1.55 | 0.00 | 99 | 1020.1 | |
| 20260902052520 | 16 | 0.0 | 0.0 | 0.00 | 1.55 | 0.00 | 99 | 1020.1 | |
| 20260902052020 | 16 | 0.0 | 0.0 | 0.00 | 1.55 | 0.00 | 99 | 1020.2 | |
| 20260902051519 | 16 | 0.0 | 0.0 | 0.00 | 1.55 | 0.00 | 99 | 1020.3 | |
| 20260902051019 | 16 | 0.0 | 0.0 | 0.00 | 1.55 | 0.00 | 99 | 1020.2 | |
| 20260902050521 | 16 | 0.0 | 0.0 | 0.00 | 1.55 | 0.00 | 99 | 1020.2 | |
| 20260902050021 | 16 | 0.0 | 0.0 | 0.00 | 1.55 | 0.00 | 99 | 1020.2 | |
| 20260902045541 | 16 | 0.0 | 0.0 | 0.00 | 1.55 | 0.00 | 99 | 1020.2 | |
| 20260902045020 | 16 | 0.0 | 0.0 | 0.00 | 1.55 | 0.00 | 99 | 1020.0 | |
| 20260902044520 | 16 | 0.0 | 0.0 | 0.00 | 1.55 | 0.00 | 99 | 1019.8 | |
| 20260902044040 | 16 | 0.0 | 0.0 | 0.00 | 1.55 | 0.00 | 99 | 1019.9 | |
| 20260902043520 | 16 | 0.0 | 0.0 | 0.00 | 1.55 | 0.00 | 99 | 1019.8 | |
| 20260902043019 | 16 | 0.0 | 0.0 | 0.00 | 1.55 | 0.00 | 99 | 1019.7 | |
| 20260902042519 | 16 | 0.0 | 0.0 | 0.00 | 1.55 | 0.00 | 99 | 1019.6 | |
| 20260902042021 | 16 | 0.0 | 0.0 | 0.00 | 1.55 | 0.00 | 99 | 1019.5 | |
| 20260902041518 | 16 | 0.0 | 0.0 | 0.00 | 1.55 | 0.00 | 99 | 1019.4 | |
| 20260902041040 | 16 | 0.0 | 0.0 | 0.00 | 1.55 | 0.00 | 99 | 1019.2 | |
| 20260902040520 | 16 | 0.0 | 0.0 | 0.00 | 1.55 | 0.00 | 99 | 1019.2 | |
| 20260902040020 | 16 | 0.0 | 0.0 | 0.00 | 1.55 | 0.00 | 99 | 1019.1 | |
| 20260902035520 | 16 | 0.0 | 0.0 | 0.00 | 1.55 | 1.55 | 99 | 1019.0 | |
| 20260902035019 | 16 | 0.0 | 0.0 | 0.00 | 1.55 | 1.55 | 99 | 1018.9 | |
| 20260902034519 | 16 | 0.0 | 0.0 | 0.00 | 1.55 | 1.55 | 99 | 1019.0 | |
| 20260902034019 | 16 | 0.0 | 0.0 | 0.00 | 1.55 | 1.55 | 99 | 1019.1 | |
| 20260902033519 | 16 | 0.0 | 0.0 | 0.00 | 1.55 | 1.55 | 99 | 1019.1 | |
| 20260902033019 | 16 | 0.0 | 0.0 | 0.00 | 1.55 | 1.55 | 99 | 1019.0 | |
| 20260902032520 | 16 | 0.0 | 0.0 | 0.00 | 1.55 | 1.55 | 99 | 1018.9 | |
| 20260902032020 | 16 | 0.0 | 0.0 | 0.00 | 1.55 | 1.55 | 99 | 1018.9 | |
| 20260902031540 | 16 | 0.0 | 0.0 | 0.00 | 1.55 | 1.55 | 99 | 1019.1 | |
| 20260902031019 | 16 | 0.0 | 0.0 | 0.00 | 1.55 | 1.55 | 99 | 1019.0 | |
| 20260902030519 | 16 | 0.0 | 0.0 | 0.00 | 1.55 | 1.55 | 99 | 1019.0 | |
| 20260902030019 | 16 | 0.0 | 0.0 | 0.00 | 1.55 | 1.55 | 99 | 1019.1 | |
| 20260902025519 | 16 | 0.0 | 0.0 | 0.00 | 1.55 | 1.55 | 99 | 1019.3 | |
| 20260902025018 | 16 | 0.0 | 0.0 | 0.00 | 1.55 | 1.55 | 99 | 1019.2 | |
| 20260902024540 | 16 | 0.0 | 0.0 | 0.00 | 1.55 | 1.55 | 99 | 1019.1 | |
| 20260902024100 | 16 | 0.0 | 0.0 | 0.00 | 1.55 | 1.55 | 99 | 1019.1 | |
| 20260902023540 | 16 | 186 | 0.0 | 1.6 | 0.00 | 1.55 | 1.55 | 99 | 1019.0 |
| 20260902023020 | 16 | 186 | 0.0 | 1.6 | 0.00 | 1.55 | 1.55 | 99 | 1019.0 |
| 20260902022519 | 16 | 0.0 | 0.0 | 0.00 | 1.55 | 1.55 | 99 | 1019.2 | |
| 20260902022019 | 16 | 0.0 | 0.0 | 0.00 | 1.55 | 1.55 | 99 | 1019.1 | |
| 20260902021540 | 16 | 0.0 | 0.0 | 0.00 | 1.55 | 1.55 | 99 | 1019.0 | |
| 20260902021019 | 16 | 0.0 | 0.0 | 0.00 | 1.55 | 1.55 | 99 | 1019.2 | |
| 20260902020518 | 16 | 0.0 | 0.0 | 0.00 | 1.55 | 1.55 | 99 | 1019.3 | |
| 20260902020040 | 16 | 0.0 | 0.0 | 0.00 | 1.55 | 1.55 | 99 | 1019.2 | |
| 20260902015520 | 16 | 0.0 | 0.0 | 0.00 | 1.55 | 1.55 | 99 | 1019.2 | |
| 20260902015020 | 16 | 0.0 | 0.0 | 0.00 | 1.55 | 1.55 | 99 | 1019.2 | |
| 20260902014519 | 16 | 0.0 | 0.0 | 0.00 | 1.55 | 1.55 | 99 | 1019.0 | |
| 20260902014019 | 16 | 0.0 | 1.6 | 0.00 | 1.55 | 1.55 | 99 | 1018.9 | |
| 20260902013519 | 16 | 0.0 | 1.6 | 0.00 | 1.55 | 1.55 | 99 | 1019.1 | |
| 20260902013019 | 16 | 0.0 | 0.0 | 0.00 | 1.55 | 1.55 | 99 | 1019.1 | |
| 20260902012539 | 16 | 0.0 | 0.0 | 0.00 | 1.55 | 1.55 | 99 | 1019.1 | |
| 20260902012020 | 16 | 0.0 | 0.0 | 0.00 | 1.55 | 1.55 | 99 | 1019.0 | |
| 20260902011520 | 16 | 0.0 | 0.0 | 0.00 | 1.55 | 1.55 | 99 | 1019.1 | |
| 20260902011021 | 16 | 0.0 | 0.0 | 0.00 | 1.55 | 1.55 | 99 | 1019.1 | |
| 20260902010519 | 16 | 0.0 | 0.0 | 0.00 | 1.55 | 1.55 | 99 | 1018.9 | |
| 20260902010019 | 16 | 0.0 | 0.0 | 0.00 | 1.55 | 1.55 | 99 | 1018.8 | |
| 20260902005521 | 16 | 0.0 | 0.0 | 0.00 | 1.55 | 1.55 | 99 | 1018.8 | |
| 20260902005041 | 16 | 0.0 | 0.0 | 0.00 | 1.55 | 1.55 | 99 | 1018.9 | |
| 20260902004521 | 16 | 0.0 | 0.0 | 0.00 | 1.55 | 1.55 | 99 | 1018.9 | |
| 20260902004021 | 16 | 0.0 | 0.0 | 0.00 | 1.55 | 1.55 | 99 | 1018.7 | |
| 20260902003520 | 16 | 0.0 | 0.0 | 0.00 | 1.55 | 1.55 | 99 | 1018.6 | |
| 20260902003100 | 16 | 0.0 | 0.0 | 0.00 | 1.55 | 1.55 | 99 | 1018.6 | |
| 20260902002520 | 16 | 0.0 | 0.0 | 0.00 | 1.55 | 1.55 | 99 | 1018.5 | |
| 20260902002019 | 16 | 0.0 | 0.0 | 0.00 | 1.55 | 1.55 | 99 | 1018.4 | |
| 20260902001519 | 17 | 0.0 | 0.0 | 0.00 | 1.55 | 1.55 | 99 | 1018.4 | |
| 20260902001021 | 17 | 0.0 | 0.0 | 0.00 | 1.55 | 1.55 | 99 | 1018.4 | |
| 20260902000541 | 17 | 187 | 0.0 | 1.6 | 0.00 | 1.55 | 1.55 | 99 | 1018.4 |
| 20260902000020 | 17 | 187 | 0.0 | 1.6 | 0.00 | 1.55 | 1.55 | 99 | 1018.4 |
| 20260901235520 | 17 | 0.0 | 0.0 | 0.00 | 1.55 | 1.55 | 99 | 1018.5 | |
| 20260901235020 | 17 | 0.0 | 0.0 | 0.00 | 1.55 | 1.55 | 99 | 1018.6 | |
| 20260901234520 | 17 | 0.0 | 0.0 | 0.00 | 1.55 | 1.55 | 99 | 1018.6 | |
| 20260901234101 | 17 | 0.0 | 0.0 | 0.00 | 1.55 | 1.55 | 99 | 1018.7 | |
| 20260901233524 | 17 | 0.0 | 0.0 | 0.00 | 1.55 | 1.55 | 99 | 1018.6 | |
| 20260901233021 | 17 | 0.0 | 0.0 | 0.00 | 1.55 | 1.55 | 99 | 1018.6 | |
| 20260901232521 | 17 | 0.0 | 0.0 | 0.00 | 1.55 | 1.55 | 99 | 1018.4 | |
| 20260901232020 | 17 | 0.0 | 0.0 | 0.00 | 1.55 | 1.55 | 99 | 1018.4 | |
| 20260901231520 | 17 | 0.0 | 0.0 | 0.00 | 1.55 | 1.55 | 98 | 1018.4 | |
| 20260901231040 | 17 | 0.0 | 0.0 | 0.00 | 1.55 | 1.55 | 98 | 1018.4 | |
| 20260901230520 | 17 | 0.0 | 0.0 | 0.00 | 1.55 | 1.55 | 98 | 1018.3 | |
| 20260901230020 | 17 | 0.0 | 0.0 | 0.00 | 1.55 | 1.55 | 98 | 1018.2 | |
| 20260901225520 | 17 | 0.0 | 0.0 | 0.00 | 1.55 | 1.55 | 98 | 1018.2 | |
| 20260901225019 | 17 | 0.0 | 0.0 | 0.00 | 1.55 | 1.55 | 98 | 1018.2 | |
| 20260901224559 | 17 | 0.0 | 0.0 | 0.00 | 1.55 | 1.55 | 98 | 1018.1 | |
| 20260901224019 | 17 | 0.0 | 0.0 | 0.00 | 1.55 | 1.55 | 98 | 1018.1 | |
| 20260901223520 | 17 | 0.0 | 0.0 | 0.00 | 1.55 | 1.55 | 97 | 1018.1 | |
| 20260901223020 | 17 | 0.0 | 0.0 | 0.00 | 1.55 | 1.55 | 97 | 1018.3 | |
| 20260901222520 | 17 | 0.0 | 0.0 | 0.00 | 1.55 | 1.55 | 97 | 1018.4 | |
| 20260901222020 | 17 | 0.0 | 1.6 | 0.00 | 1.55 | 1.55 | 96 | 1018.3 | |
| 20260901221519 | 17 | 186 | 0.0 | 3.2 | 0.00 | 1.55 | 1.55 | 95 | 1018.3 |
| 20260901221019 | 17 | 186 | 0.0 | 4.8 | 0.00 | 1.55 | 1.55 | 95 | 1018.2 |
| 20260901220521 | 17 | 177 | 0.0 | 4.8 | 0.00 | 1.55 | 1.55 | 95 | 1018.2 |
| 20260901220021 | 17 | 156 | 1.6 | 4.8 | 0.00 | 1.55 | 1.55 | 95 | 1018.2 |
| 20260901215520 | 17 | 189 | 1.6 | 6.4 | 0.00 | 1.55 | 1.55 | 94 | 1018.4 |
| 20260901215040 | 17 | 178 | 3.2 | 4.8 | 0.00 | 1.55 | 1.55 | 95 | 1018.2 |
| 20260901214520 | 17 | 195 | 1.6 | 4.8 | 0.03 | 1.55 | 1.55 | 96 | 1018.2 |
| 20260901214019 | 17 | 159 | 3.2 | 9.7 | 0.03 | 1.55 | 1.55 | 96 | 1018.2 |
| 20260901213519 | 17 | 178 | 1.6 | 3.2 | 0.03 | 1.55 | 1.55 | 98 | 1018.2 |
| 20260901213021 | 17 | 163 | 0.0 | 3.2 | 0.03 | 1.55 | 1.55 | 98 | 1018.2 |
| 20260901212600 | 17 | 162 | 0.0 | 1.6 | 0.03 | 1.55 | 1.55 | 98 | 1018.1 |
| 20260901212020 | 17 | 162 | 0.0 | 3.2 | 0.05 | 1.55 | 1.55 | 98 | 1018.2 |
| 20260901211519 | 17 | 162 | 0.0 | 1.6 | 0.05 | 1.55 | 1.55 | 98 | 1018.2 |
| 20260901211019 | 17 | 162 | 0.0 | 1.6 | 0.05 | 1.55 | 1.55 | 97 | 1018.1 |
| 20260901210539 | 17 | 162 | 1.6 | 3.2 | 0.05 | 1.55 | 1.55 | 97 | 1018.0 |
| 20260901210021 | 17 | 180 | 0.0 | 3.2 | 0.05 | 1.55 | 1.55 | 97 | 1018.0 |
| 20260901205519 | 17 | 208 | 1.6 | 3.2 | 0.03 | 1.55 | 1.55 | 97 | 1018.0 |
| 20260901205019 | 17 | 154 | 1.6 | 6.4 | 0.03 | 1.55 | 1.55 | 96 | 1017.9 |
| 20260901204521 | 17 | 191 | 1.6 | 9.7 | 0.03 | 1.55 | 1.55 | 96 | 1017.9 |
| 20260901204121 | 17 | 150 | 1.6 | 4.8 | 0.05 | 1.55 | 1.55 | 95 | 1017.8 |
| 20260901203520 | 17 | 135 | 3.2 | 9.7 | 0.05 | 1.52 | 1.52 | 95 | 1017.7 |
| 20260901203022 | 17 | 130 | 4.8 | 14.5 | 0.05 | 1.52 | 1.52 | 95 | 1017.8 |
| 20260901202520 | 17 | 136 | 1.6 | 9.7 | 0.08 | 1.52 | 1.52 | 95 | 1017.7 |
| 20260901202020 | 17 | 150 | 4.8 | 11.3 | 0.08 | 1.52 | 1.52 | 94 | 1017.7 |
| 20260901201520 | 17 | 153 | 1.6 | 9.7 | 0.10 | 1.52 | 1.52 | 94 | 1017.7 |
| 20260901201040 | 17 | 148 | 1.6 | 6.4 | 0.10 | 1.52 | 1.52 | 94 | 1017.7 |
| 20260901200539 | 17 | 130 | 3.2 | 14.5 | 0.13 | 1.52 | 1.52 | 94 | 1017.7 |
| 20260901200019 | 17 | 121 | 4.8 | 14.5 | 0.18 | 1.52 | 1.52 | 95 | 1017.6 |
| 20260901195525 | 17 | 130 | 3.2 | 11.3 | 0.23 | 1.52 | 1.52 | 95 | 1017.6 |
| 20260901195021 | 17 | 115 | 4.8 | 9.7 | 0.30 | 1.52 | 1.52 | 95 | 1017.6 |
| 20260901194521 | 17 | 111 | 3.2 | 9.7 | 0.36 | 1.50 | 1.50 | 95 | 1017.7 |
| 20260901194020 | 17 | 103 | 3.2 | 12.9 | 0.38 | 1.50 | 1.50 | 94 | 1017.7 |
| 20260901193520 | 17 | 99 | 3.2 | 9.7 | 0.41 | 1.50 | 1.50 | 94 | 1017.6 |
| 20260901193040 | 17 | 122 | 4.8 | 14.5 | 0.43 | 1.47 | 1.47 | 94 | 1017.7 |
| 20260901192519 | 17 | 108 | 6.4 | 14.5 | 0.43 | 1.47 | 1.47 | 94 | 1017.7 |
| 20260901192019 | 18 | 115 | 4.8 | 12.9 | 0.43 | 1.45 | 1.45 | 93 | 1017.6 |
| 20260901191519 | 18 | 111 | 6.4 | 16.1 | 0.46 | 1.42 | 1.42 | 93 | 1017.5 |
| 20260901191021 | 18 | 103 | 8.0 | 20.9 | 0.48 | 1.42 | 1.42 | 96 | 1017.4 |
| 20260901190520 | 18 | 115 | 8.0 | 20.9 | 0.53 | 1.40 | 1.40 | 98 | 1017.5 |
| 20260901190020 | 18 | 118 | 1.6 | 9.7 | 0.53 | 1.35 | 1.35 | 98 | 1017.5 |
| 20260901185520 | 18 | 71 | 1.6 | 6.4 | 0.51 | 1.27 | 1.27 | 98 | 1017.6 |
| 20260901185020 | 18 | 84 | 1.6 | 9.7 | 0.53 | 1.22 | 1.22 | 98 | 1017.5 |
| 20260901184519 | 18 | 87 | 1.6 | 9.7 | 0.51 | 1.14 | 1.14 | 97 | 1017.5 |
| 20260901184019 | 18 | 71 | 1.6 | 6.4 | 0.53 | 1.12 | 1.12 | 97 | 1017.4 |
| 20260901183521 | 18 | 69 | 1.6 | 4.8 | 0.53 | 1.07 | 1.07 | 97 | 1017.4 |
| 20260901183021 | 18 | 66 | 1.6 | 4.8 | 0.56 | 1.04 | 1.04 | 97 | 1017.4 |
| 20260901182601 | 18 | 104 | 4.8 | 12.9 | 0.56 | 1.04 | 1.04 | 97 | 1017.3 |
| 20260901182020 | 18 | 90 | 6.4 | 11.3 | 0.56 | 1.02 | 1.02 | 97 | 1017.1 |
| 20260901181520 | 18 | 102 | 3.2 | 14.5 | 0.53 | 0.97 | 0.97 | 97 | 1017.2 |
| 20260901181020 | 18 | 99 | 6.4 | 14.5 | 0.51 | 0.91 | 0.91 | 98 | 1017.3 |
| 20260901180540 | 18 | 93 | 1.6 | 4.8 | 0.48 | 0.86 | 0.86 | 98 | 1017.1 |
| 20260901180019 | 18 | 92 | 3.2 | 9.7 | 0.48 | 0.81 | 0.81 | 98 | 1017.1 |
| 20260901175519 | 18 | 84 | 4.8 | 11.3 | 0.43 | 0.76 | 0.76 | 98 | 1017.0 |
| 20260901175021 | 18 | 84 | 3.2 | 11.3 | 0.36 | 0.69 | 0.69 | 97 | 1017.0 |
| 20260901174521 | 18 | 86 | 3.2 | 6.4 | 0.28 | 0.64 | 0.64 | 97 | 1017.0 |
| 20260901174100 | 18 | 85 | 3.2 | 9.7 | 0.23 | 0.58 | 0.58 | 97 | 1017.1 |
| 20260901173540 | 18 | 72 | 3.2 | 6.4 | 0.18 | 0.53 | 0.53 | 97 | 1016.9 |
| 20260901173020 | 18 | 79 | 3.2 | 6.4 | 0.15 | 0.48 | 0.48 | 96 | 1017.0 |
| 20260901172540 | 18 | 83 | 4.8 | 9.7 | 0.13 | 0.48 | 0.48 | 96 | 1017.1 |
| 20260901172020 | 18 | 76 | 1.6 | 9.7 | 0.13 | 0.46 | 0.46 | 96 | 1017.3 |
| 20260901171519 | 18 | 76 | 3.2 | 6.4 | 0.10 | 0.43 | 0.43 | 95 | 1017.2 |
| 20260901171019 | 19 | 76 | 3.2 | 9.7 | 0.08 | 0.41 | 0.41 | 95 | 1017.3 |
| 20260901170519 | 19 | 83 | 3.2 | 11.3 | 0.03 | 0.38 | 0.38 | 94 | 1017.2 |
| 20260901170039 | 19 | 95 | 4.8 | 11.3 | 0.00 | 0.33 | 0.33 | 93 | 1017.2 |
| 20260901165601 | 19 | 94 | 4.8 | 11.3 | 0.00 | 0.33 | 0.33 | 93 | 1017.3 |
| 20260901165020 | 19 | 93 | 4.8 | 12.9 | 0.00 | 0.33 | 0.33 | 93 | 1017.4 |
| 20260901164540 | 19 | 96 | 6.4 | 16.1 | 0.00 | 0.33 | 0.33 | 93 | 1017.4 |
| 20260901164100 | 19 | 81 | 3.2 | 11.3 | 0.00 | 0.33 | 0.33 | 93 | 1017.4 |
| 20260901163519 | 19 | 103 | 4.8 | 11.3 | 0.00 | 0.33 | 0.33 | 92 | 1017.3 |